Location: Pradons
(44.4746°N, 4.3578°E)
Time: 03:54:09
(UTC+00:00)

In-Cosmos 22 Rocket - Pass Details

Date: 09 April 2020
Orbit: 790 x 888 km, 81.2° (Epoch: 02 June)

Event Time Altitude Azimuth Distance (km) Brightness Sun altitude
Rises 20:22:04 0° 349° (N) 3,506 8.1 -20.6°
Reaches altitude 10° 20:24:32 10° 350° (N) 2,564 7.3 -21.0°
Maximum altitude 20:30:25 87° 81° (E) 893 4.2 -21.8°
Enters shadow 20:32:50 37° 168° (SSE) 1,331 4.8 -22.2°
